TimeMDT,TemperatureF,Dew PointF,Humidity,Sea Level PressureIn,VisibilityMPH,Wind Direction,Wind SpeedMPH,Gust SpeedMPH,PrecipitationIn,Events,Conditions,WindDirDegrees,DateUTC
12:53 AM,41.0,37.9,89,29.96,10.0,ENE,8.1,-,0.04,Rain,Light Rain,60,2012-10-22 06:53:00
1:53 AM,41.0,37.9,89,29.94,10.0,ENE,10.4,-,0.00,,Overcast,60,2012-10-22 07:53:00
2:53 AM,41.0,37.0,86,29.93,10.0,East,6.9,-,N/A,,Mostly Cloudy,90,2012-10-22 08:53:00
3:53 AM,41.0,37.0,86,29.93,10.0,ESE,8.1,-,N/A,,Overcast,120,2012-10-22 09:53:00
4:53 AM,39.9,36.0,86,29.93,10.0,SE,5.8,-,N/A,,Mostly Cloudy,130,2012-10-22 10:53:00
6:53 AM,37.0,35.1,93,29.94,10.0,East,4.6,-,N/A,,Partly Cloudy,80,2012-10-22 12:53:00
7:53 AM,39.0,36.0,89,29.93,10.0,ENE,6.9,-,N/A,,Clear,70,2012-10-22 13:53:00
8:53 AM,41.0,37.9,89,29.93,10.0,ENE,6.9,-,N/A,,Clear,70,2012-10-22 14:53:00
9:53 AM,42.1,37.9,85,29.93,10.0,East,5.8,-,N/A,,Partly Cloudy,100,2012-10-22 15:53:00
10:51 AM,44.6,39.2,81,29.88,10.0,SE,10.4,-,N/A,,Mostly Cloudy,140,2012-10-22 16:51:00
10:53 AM,45.0,39.0,80,29.91,10.0,SE,10.4,-,N/A,,Mostly Cloudy,130,2012-10-22 16:53:00
11:53 AM,46.9,39.9,77,29.87,10.0,SE,13.8,-,N/A,,Overcast,130,2012-10-22 17:53:00
12:53 PM,48.0,39.9,74,29.84,10.0,SSE,11.5,-,N/A,,Overcast,150,2012-10-22 18:53:00
1:53 PM,48.0,39.9,74,29.81,10.0,SE,11.5,-,N/A,,Overcast,130,2012-10-22 19:53:00
2:53 PM,48.0,39.9,74,29.78,10.0,ESE,12.7,-,N/A,,Overcast,120,2012-10-22 20:53:00
3:53 PM,46.0,42.1,86,29.76,10.0,SE,5.8,-,0.01,Rain,Light Rain,140,2012-10-22 21:53:00
4:00 PM,46.4,42.8,87,29.73,8.0,ESE,6.9,-,0.01,Rain,Light Rain,110,2012-10-22 22:00:00
4:30 PM,44.6,42.8,93,29.72,2.5,ESE,9.2,-,0.08,Rain,Rain,120,2012-10-22 22:30:00
4:41 PM,44.6,42.8,93,29.70,3.0,ESE,8.1,-,0.10,Rain,Rain,110,2012-10-22 22:41:00
4:53 PM,44.1,42.1,93,29.73,8.0,ESE,9.2,-,0.11,Rain,Light Rain,110,2012-10-22 22:53:00
5:13 PM,44.6,41.0,87,29.68,10.0,East,9.2,-,0.00,,Overcast,100,2012-10-22 23:13:00
5:53 PM,45.0,42.1,90,29.69,10.0,East,9.2,-,0.00,,Overcast,90,2012-10-22 23:53:00
6:09 PM,44.6,42.8,93,29.65,10.0,NE,9.2,-,N/A,,Overcast,50,2012-10-23 00:09:00
6:53 PM,44.1,42.1,93,29.69,10.0,East,8.1,-,N/A,,Overcast,80,2012-10-23 00:53:00
7:53 PM,45.0,41.0,86,29.69,10.0,SSE,10.4,-,N/A,,Overcast,150,2012-10-23 01:53:00
8:53 PM,45.0,41.0,86,29.68,10.0,SE,11.5,-,N/A,,Overcast,130,2012-10-23 02:53:00
9:53 PM,45.0,41.0,86,29.64,10.0,ESE,12.7,-,N/A,,Overcast,120,2012-10-23 03:53:00
10:34 PM,44.6,41.0,87,29.62,10.0,SE,6.9,-,N/A,,Overcast,130,2012-10-23 04:34:00
10:53 PM,45.0,41.0,86,29.62,10.0,ESE,10.4,-,N/A,,Overcast,120,2012-10-23 04:53:00
11:05 PM,44.6,41.0,87,29.61,10.0,SE,9.2,-,N/A,,Overcast,130,2012-10-23 05:05:00